• Join FlightAware (Why Join?)
  • Login
  • US Flag GB Flag 
07:48 EST


 

Airport Tracker/Info


-or-


 

Live Flight TrackerFlight Track Log ✈ RPA3436 ✈ 10-Jul-2013 ✈ KCHS - KDCA

Flight Track Log - Related Links

Times and Time Zones

All times are in EDT time to prevent confusion due to time zone crossing. See the RPA3436 flight status page for this flight to view local times or setup timezone preferences in your user account.

Time Position Orientation Groundspeed Altitude Reporting Facility
EDT Latitude Longitude Course Direction KTS MPH feet Rate Location/Type
07:51 32.8644 -80.0114 13° North 197 227 2,900  Level Jacksonville Center
07:52 33.1623 -79.9500 North  Level FlightAware Approximate
07:52 32.9328 -79.9919 13° North 263 303 5,500  Level Jacksonville Center
07:53 33.2564 -79.9254 North  Level FlightAware Approximate
07:53 33.0075 -79.9747 11° North 275 316 8,400  Level Jacksonville Center
07:54 33.3482 -79.8925 23° Northeast  Level FlightAware Approximate
07:54 33.0839 -79.9350 24° Northeast 280 322 10,800  Level Jacksonville Center
07:55 33.4422 -79.8682 North  Level FlightAware Approximate
07:55 33.1661 -79.8875 26° Northeast 296 341 13,100  Level Jacksonville Center
07:56 33.5362 -79.8421 13° North  Level FlightAware Approximate
07:56 33.2486 -79.8425 25° Northeast 316 364 15,300  Level Jacksonville Center
07:57 33.3350 -79.7925 26° Northeast 323 372 17,300 1,700 Climbing Jacksonville Center
07:58 33.4278 -79.7419 24° Northeast 345 397 18,700 1,650 Climbing Jacksonville Center
07:59 33.5225 -79.6886 25° Northeast 357 411 20,600 1,700 Climbing Jacksonville Center
08:00 33.6169 -79.6353 25° Northeast 362 417 22,100 1,500 Climbing Jacksonville Center
08:01 33.7158 -79.5792 25° Northeast 374 430 23,600 1,450 Climbing Jacksonville Center
08:02 33.8144 -79.5231 25° Northeast 374 430 25,000 1,250 Climbing Jacksonville Center
08:03 33.9150 -79.4667 25° Northeast 384 442 26,100 1,300 Climbing Jacksonville Center
08:04 34.0036 -79.4181 24° Northeast 389 448 27,600 1,387 Climbing Jacksonville Center
08:05 34.1956 -79.3078 25° Northeast 394 453 30,100 1,097 Climbing Washington Center
08:07 34.3144 -79.2353 27° Northeast 417 480 31,000 403 Climbing Washington Center
08:08 34.4397 -79.1653 25° Northeast 417 480 31,000  Level Washington Center
08:09 34.5481 -79.1044 25° Northeast 412 474 31,000  Level Washington Center
08:10 34.6519 -79.0433 26° Northeast 412 474 31,000  Level Washington Center
08:11 34.7561 -78.9794 27° Northeast 412 474 31,000  Level Washington Center
08:12 34.8622 -78.9181 25° Northeast 412 474 31,000  Level Washington Center
08:13 34.9892 -78.8472 25° Northeast 412 474 31,000  Level Washington Center
08:14 35.0953 -78.7828 26° Northeast 412 474 31,000  Level Washington Center
08:15 35.2014 -78.7211 25° Northeast 412 474 31,000 -153 Level Washington Center
08:16 35.3050 -78.6614 25° Northeast 412 474 30,700 -744 Descending Washington Center
08:17 35.4108 -78.5992 26° Northeast 419 482 29,500 -1,140 Descending Washington Center
08:18 35.5042 -78.5414 27° Northeast 414 476 28,400 -1,140 Descending Washington Center
08:19 35.6144 -78.4767 26° Northeast 426 490 27,200 -694 Descending Washington Center
08:20 35.7158 -78.4164 26° Northeast 426 490 27,000 -100 Descending Washington Center
08:21 35.8194 -78.3561 25° Northeast 416 479 27,000  Level Washington Center
08:22 35.9317 -78.2881 26° Northeast 422 486 27,000  Level Washington Center
08:23 36.0458 -78.2200 26° Northeast 434 499 27,000  Level Washington Center
08:24 36.1600 -78.1517 26° Northeast 439 505 27,000  Level Washington Center
08:25 36.2742 -78.0808 27° Northeast 445 512 27,000  Level Washington Center
08:26 36.3861 -78.0122 26° Northeast 450 518 27,000  Level Washington Center
08:27 36.5108 -77.9383 25° Northeast 450 518 27,000 -197 Level Washington Center
08:28 36.6206 -77.8667 28° Northeast 450 518 26,600 -712 Descending Washington Center
08:29 36.7325 -77.8000 26° Northeast 450 518 25,600 -1,160 Descending Washington Center
08:30 36.8422 -77.7306 27° Northeast 450 518 24,300 -1,279 Descending Washington Center
08:31 36.9497 -77.6658 26° Northeast 438 504 23,000 -1,160 Descending Washington Center
08:32 37.0572 -77.6011 26° Northeast 430 495 22,000 -504 Descending Washington Center
08:33 37.1606 -77.5333 28° Northeast 425 489 22,000  Level Washington Center
08:34 37.2681 -77.4683 26° Northeast 425 489 22,000  Level Washington Center
08:35 37.3753 -77.4031 26° Northeast 425 489 22,000  Level Washington Center
08:36 37.4828 -77.3347 27° Northeast 425 489 22,000 -248 Level Washington Center
08:37 37.5958 -77.3033 12° North 420 483 21,500 -1,082 Descending Washington Center
08:38 37.7108 -77.2769 10° North 415 478 19,800 -1,916 Descending Washington Center
08:39 37.8239 -77.2533 North 415 478 17,700 -2,136 Descending Washington Center
08:40 37.9328 -77.2294 10° North 405 466 15,600 -2,033 Descending Washington Center
08:41 38.0331 -77.2078 10° North 383 441 13,600 -1,918 Descending Washington Center
08:42 38.1356 -77.1914 North 371 427 11,700 -1,815 Descending Washington Center
08:43 38.2339 -77.1672 11° North 361 415 10,000 -857 Descending Washington Center
08:44 38.3342 -77.1508 North 361 415 10,000  Level Washington Center
08:45 38.4178 -77.1339 North 331 381 10,000  Level Washington Center
08:46 38.4992 -77.1144 11° North 308 354 10,000 -750 Level Washington Center
08:47 38.5808 -77.0975 North 303 349 8,500 -1,623 Descending Washington Center
08:48 38.6644 -77.0781 10° North 298 343 6,700 -1,271 Descending Washington Center
08:49 38.7397 -77.0633 North 285 328 6,000 -382 Descending Washington Center
08:50 38.8000 -77.0833 346° North 261 300 6,000  Level Potomac TRACON
08:51 38.8500 -77.1333 322° Northwest 207 238 6,000 -211 Level Potomac TRACON
08:52 38.8833 -77.1833 311° West 199 229 5,600 -474 Descending Potomac TRACON
08:53 38.9167 -77.2333 311° West 194 223 5,100 -300 Descending Potomac TRACON
08:54 38.9667 -77.2833 322° Northwest 196 226 5,000 -52 Descending Potomac TRACON
08:55 39.0000 -77.2833 360° North 223 257 5,000 -579 Level Potomac TRACON
08:55 39.0333 -77.2167 57° Northeast 231 266 3,900 -958 Descending Potomac TRACON
08:56 38.9833 -77.1667 142° Southeast 191 220 3,100 -800 Descending Potomac TRACON